This is the latest recevied weather packets stored in our database for station/object SP9POL-3. If no packets are shown the sender has not sent any weather packets the latest 10 day(s).
| Time | Temp. | Humidity | Pressure | Rain* | Wind** | Luminosity | Snow |
|---|---|---|---|---|---|---|---|
| 1778002454 | 21.67° C | 20% | 1004.5 hPa | - | - | - | - |
| 1778000774 | 22.22° C | 19% | 1004.6 hPa | - | - | - | - |
| 1777999094 | 22.78° C | 18% | 1004.8 hPa | - | - | - | - |
| 1777997414 | 24.44° C | 17% | 1004.8 hPa | - | - | - | - |
| 1777995734 | 26.11° C | 15% | 1005 hPa | - | - | - | - |
| 1777994053 | 27.22° C | 14% | 1005.2 hPa | - | - | - | - |
| 1777992373 | 28.89° C | 13% | 1005.3 hPa | - | - | - | - |
| 1777990693 | 24.44° C | 18% | 1005.6 hPa | - | - | - | - |
| 1777989012 | 23.89° C | 19% | 1005.8 hPa | - | - | - | - |
| 1777987332 | 24.44° C | 20% | 1005.9 hPa | - | - | - | - |
| 1777985652 | 26.11° C | 18% | 1006.1 hPa | - | - | - | - |
| 1777983972 | 27.78° C | 18% | 1006.5 hPa | - | - | - | - |
| 1777982291 | 27.78° C | 16% | 1006.9 hPa | - | - | - | - |
| 1777980611 | 27.78° C | 16% | 1007 hPa | - | - | - | - |
| 1777978931 | 24.44° C | 22% | 1007.3 hPa | - | - | - | - |
| 1777977250 | 22.22° C | 27% | 1007.7 hPa | - | - | - | - |
| 1777975570 | 21.11° C | 31% | 1008.1 hPa | - | - | - | - |
| 1777973890 | 20° C | 35% | 1008.3 hPa | - | - | - | - |
| 1777972210 | 19.44° C | 39% | 1008.6 hPa | - | - | - | - |
| 1777970530 | 17.78° C | 46% | 1008.7 hPa | - | - | - | - |
| 1777968850 | 16.67° C | 47% | 1008.9 hPa | - | - | - | - |
| 1777967170 | 16.11° C | 49% | 1009.1 hPa | - | - | - | - |
| 1777965490 | 15° C | 51% | 1009.3 hPa | - | - | - | - |
| 1777963809 | 14.44° C | 55% | 1009.4 hPa | - | - | - | - |
| 1777962129 | 13.89° C | 59% | 1009.6 hPa | - | - | - | - |
* Rain since midnight (hover to see other rain measurements)
** Current wind speed in m/s (hover to see current wind gust speed)